When you browse on this site, cookies collect data to enhance your experience and personalize the content and advertising you see.
Visit our Privacy Policy to learn more. By continuing to use the site, you agree to this use of cookies and data.
  • Em Portugal
  • Lista de países
  • Para 7 dias
  • Temperatura da água
  • Mapas de satélite
  • Mapa do tempo
  • Widgets de tempo
  • user-avatar
    Iniciar Sessão

    Previsão horária em Nashavar

    Hoje, 17 Dezembro, Segunda-feira

    Tempo Temperatura Precipitação Vento Pressão Humidade
    00:00 +14°C° 0 mm 1 m/s 736 mmHg 16%
    01:00 +14°C° 0 mm 2 m/s 736 mmHg 16%
    02:00 +14°C° 0 mm 2 m/s 735 mmHg 16%
    03:00 +13°C° 0 mm 2 m/s 735 mmHg 16%
    04:00 +13°C° 0 mm 2 m/s 735 mmHg 16%
    05:00 +13°C° 0 mm 2 m/s 735 mmHg 16%
    06:00 +13°C° 0 mm 2 m/s 735 mmHg 16%
    07:00 +13°C° 0 mm 2 m/s 736 mmHg 16%
    08:00 +13°C° 0 mm 1 m/s 736 mmHg 16%
    09:00 +15°C° 0 mm 1 m/s 736 mmHg 14%
    10:00 +19°C° 0 mm 1 m/s 736 mmHg 12%
    11:00 +21°C° 0 mm 1 m/s 736 mmHg 10%
    12:00 +22°C° 0 mm 1 m/s 735 mmHg 9%
    13:00 +23°C° 0 mm 2 m/s 735 mmHg 8%
    14:00 +24°C° 0 mm 2 m/s 734 mmHg 8%
    15:00 +22°C° 0 mm 1 m/s 734 mmHg 10%
    16:00 +21°C° 0 mm 1 m/s 734 mmHg 12%
    17:00 +19°C° 0 mm 1 m/s 734 mmHg 13%
    18:00 +19°C° 0 mm 1 m/s 734 mmHg 13%
    19:00 +18°C° 0 mm 1 m/s 734 mmHg 13%
    20:00 +16°C° 0 mm 2 m/s 735 mmHg 13%
    21:00 +16°C° 0 mm 2 m/s 735 mmHg 13%
    22:00 +15°C° 0 mm 2 m/s 735 mmHg 13%
    23:00 +15°C° 0 mm 2 m/s 735 mmHg 13%

    Amanhã, 18 Dezembro, Terça-feira

    Tempo Temperatura Precipitação Vento Pressão Humidade
    00:00 +15°C° 0 mm 2 m/s 735 mmHg 14%
    01:00 +14°C° 0 mm 2 m/s 735 mmHg 14%
    02:00 +14°C° 0 mm 2 m/s 734 mmHg 14%
    03:00 +14°C° 0 mm 2 m/s 734 mmHg 14%
    04:00 +13°C° 0 mm 2 m/s 734 mmHg 14%
    05:00 +13°C° 0 mm 2 m/s 734 mmHg 14%
    06:00 +13°C° 0 mm 2 m/s 734 mmHg 14%
    07:00 +13°C° 0 mm 2 m/s 734 mmHg 14%
    08:00 +13°C° 0 mm 2 m/s 734 mmHg 14%
    09:00 +16°C° 0 mm 1 m/s 735 mmHg 13%
    10:00 +19°C° 0 mm 1 m/s 735 mmHg 11%
    11:00 +21°C° 0 mm 1 m/s 735 mmHg 9%
    12:00 +22°C° 0 mm 1 m/s 734 mmHg 9%
    13:00 +23°C° 0 mm 1 m/s 733 mmHg 8%
    14:00 +24°C° 0 mm 1 m/s 733 mmHg 8%
    15:00 +22°C° 0 mm 1 m/s 733 mmHg 10%
    16:00 +21°C° 0 mm 1 m/s 732 mmHg 13%
    17:00 +18°C° 0 mm 0 m/s 732 mmHg 15%
    18:00 +17°C° 0 mm 0 m/s 732 mmHg 15%
    19:00 +19°C° 0 mm 1 m/s 732 mmHg 14%
    20:00 +18°C° 0 mm 1 m/s 733 mmHg 14%
    21:00 +18°C° 0 mm 1 m/s 733 mmHg 14%
    22:00 +16°C° 0 mm 1 m/s 732 mmHg 15%
    23:00 +16°C° 0 mm 1 m/s 732 mmHg 15%

    Depois de amanhã, 19 Dezembro, Quarta-feira

    Tempo Temperatura Precipitação Vento Pressão Humidade
    00:00 +14°C° 0 mm 0 m/s 732 mmHg 16%
    01:00 +14°C° 0 mm 0 m/s 732 mmHg 16%
    02:00 +13°C° 0 mm 0 m/s 732 mmHg 17%
    03:00 +13°C° 0 mm 0 m/s 731 mmHg 17%
    04:00 +14°C° 0 mm 1 m/s 731 mmHg 17%
    05:00 +13°C° 0 mm 1 m/s 731 mmHg 17%
    06:00 +13°C° 0 mm 1 m/s 731 mmHg 17%
    07:00 +13°C° 0 mm 1 m/s 731 mmHg 18%
    08:00 +13°C° 0 mm 1 m/s 732 mmHg 18%
    09:00 +16°C° 0 mm 1 m/s 732 mmHg 16%
    10:00 +19°C° 0 mm 1 m/s 732 mmHg 13%
    11:00 +21°C° 0 mm 1 m/s 732 mmHg 11%
    12:00 +22°C° 0 mm 1 m/s 732 mmHg 11%
    13:00 +23°C° 0 mm 1 m/s 731 mmHg 10%
    14:00 +23°C° 0 mm 1 m/s 731 mmHg 10%
    15:00 +22°C° 0 mm 1 m/s 730 mmHg 12%
    16:00 +21°C° 0 mm 1 m/s 730 mmHg 14%
    17:00 +17°C° 0 mm 0 m/s 730 mmHg 16%
    18:00 +16°C° 0 mm 0 m/s 731 mmHg 16%
    19:00 +15°C° 0 mm 0 m/s 731 mmHg 17%
    20:00 +15°C° 0 mm 0 m/s 732 mmHg 17%
    21:00 +14°C° 0 mm 0 m/s 732 mmHg 17%
    22:00 +15°C° 0 mm 1 m/s 732 mmHg 18%
    23:00 +14°C° 0 mm 1 m/s 732 mmHg 18%

    20 Dezembro, Quinta-feira

    Tempo Temperatura Precipitação Vento Pressão Humidade
    00:00 +14°C° 0 mm 1 m/s 732 mmHg 18%
    01:00 +14°C° 0 mm 1 m/s 732 mmHg 18%
    02:00 +13°C° 0 mm 1 m/s 732 mmHg 17%
    03:00 +13°C° 0 mm 1 m/s 732 mmHg 17%
    04:00 +13°C° 0 mm 1 m/s 732 mmHg 17%
    05:00 +12°C° 0 mm 2 m/s 732 mmHg 17%
    06:00 +12°C° 0 mm 2 m/s 733 mmHg 17%
    07:00 +12°C° 0 mm 2 m/s 733 mmHg 17%
    08:00 +12°C° 0 mm 2 m/s 734 mmHg 17%
    09:00 +15°C° 0 mm 2 m/s 734 mmHg 15%
    10:00 +17°C° 0 mm 2 m/s 734 mmHg 13%
    11:00 +19°C° 0 mm 2 m/s 734 mmHg 11%
    12:00 +20°C° 0 mm 2 m/s 734 mmHg 11%
    13:00 +21°C° 0 mm 2 m/s 733 mmHg 10%
    14:00 +21°C° 0 mm 2 m/s 733 mmHg 10%
    15:00 +20°C° 0 mm 2 m/s 732 mmHg 12%
    16:00 +20°C° 0 mm 1 m/s 732 mmHg 14%
    17:00 +18°C° 0 mm 1 m/s 732 mmHg 15%
    18:00 +18°C° 0 mm 1 m/s 733 mmHg 15%
    19:00 +16°C° 0 mm 1 m/s 733 mmHg 15%
    20:00 +15°C° 0 mm 1 m/s 733 mmHg 15%
    21:00 +15°C° 0 mm 1 m/s 733 mmHg 15%
    22:00 +14°C° 0 mm 2 m/s 733 mmHg 16%
    23:00 +14°C° 0 mm 2 m/s 733 mmHg 16%

    21 Dezembro, Sexta-feira

    Tempo Temperatura Precipitação Vento Pressão Humidade
    00:00 +13°C° 0 mm 2 m/s 733 mmHg 16%
    01:00 +13°C° 0 mm 2 m/s 733 mmHg 16%
    02:00 +13°C° 0 mm 2 m/s 732 mmHg 16%
    03:00 +12°C° 0 mm 2 m/s 732 mmHg 17%
    04:00 +12°C° 0 mm 2 m/s 732 mmHg 17%
    05:00 +12°C° 0 mm 2 m/s 732 mmHg 17%
    06:00 +12°C° 0 mm 2 m/s 732 mmHg 17%
    07:00 +12°C° 0 mm 2 m/s 733 mmHg 17%
    08:00 +12°C° 0 mm 1 m/s 733 mmHg 18%
    09:00 +14°C° 0 mm 1 m/s 733 mmHg 15%
    10:00 +18°C° 0 mm 1 m/s 733 mmHg 13%
    11:00 +20°C° 0 mm 1 m/s 733 mmHg 11%
    12:00 +21°C° 0 mm 1 m/s 733 mmHg 10%
    13:00 +22°C° 0 mm 1 m/s 732 mmHg 10%
    14:00 +22°C° 0 mm 1 m/s 732 mmHg 9%
    15:00 +21°C° 0 mm 1 m/s 732 mmHg 12%
    16:00 +20°C° 0 mm 1 m/s 731 mmHg 14%
    17:00 +18°C° 0 mm 1 m/s 731 mmHg 16%
    18:00 +18°C° 0 mm 1 m/s 732 mmHg 16%
    19:00 +16°C° 0 mm 1 m/s 732 mmHg 16%
    20:00 +15°C° 0 mm 1 m/s 732 mmHg 16%
    21:00 +15°C° 0 mm 1 m/s 732 mmHg 16%
    22:00 +14°C° 0 mm 1 m/s 732 mmHg 16%
    23:00 +14°C° 0 mm 1 m/s 732 mmHg 16%

    22 Dezembro, Sábado

    Tempo Temperatura Precipitação Vento Pressão Humidade
    00:00 +14°C° 0 mm 1 m/s 732 mmHg 16%
    01:00 +13°C° 0 mm 2 m/s 732 mmHg 16%
    02:00 +13°C° 0 mm 2 m/s 732 mmHg 16%
    03:00 +13°C° 0 mm 2 m/s 731 mmHg 16%
    04:00 +12°C° 0 mm 2 m/s 731 mmHg 16%
    05:00 +12°C° 0 mm 2 m/s 731 mmHg 16%
    06:00 +12°C° 0 mm 2 m/s 731 mmHg 16%
    07:00 +12°C° 0 mm 2 m/s 731 mmHg 16%
    08:00 +13°C° 0 mm 2 m/s 732 mmHg 16%
    09:00 +15°C° 0 mm 1 m/s 732 mmHg 14%
    10:00 +18°C° 0 mm 1 m/s 732 mmHg 12%
    11:00 +20°C° 0 mm 1 m/s 732 mmHg 10%
    12:00 +21°C° 0 mm 1 m/s 732 mmHg 9%
    13:00 +22°C° 0 mm 1 m/s 731 mmHg 9%
    14:00 +23°C° 0 mm 1 m/s 731 mmHg 8%
    15:00 +21°C° 0 mm 1 m/s 731 mmHg 11%
    16:00 +20°C° 0 mm 1 m/s 731 mmHg 13%
    17:00 +16°C° 0 mm 0 m/s 731 mmHg 15%
    18:00 +16°C° 0 mm 0 m/s 731 mmHg 15%
    19:00 +15°C° 0 mm 0 m/s 732 mmHg 16%
    20:00 +14°C° 0 mm 0 m/s 732 mmHg 16%
    21:00 +13°C° 0 mm 0 m/s 732 mmHg 16%
    22:00 +14°C° 0 mm 1 m/s 732 mmHg 17%
    23:00 +13°C° 0 mm 1 m/s 732 mmHg 17%
    Mostrar mais